Погода в Зилаире

Погода в Зилаире : погода сейчас, прогноз погоды и архив. Всё, что Вы хотите узнать о погоде в Зилаире!

Поиск расширенной информации на нашем сайте:

Другие новости

Новости СМИ2

Главная страница сайта

Новости сайта

03.07.2017

Напоминаем, что на нашем специализированном сайте Метеоцентр.Азия вы можете получить высокодетализированные автоматические прогнозы погоды по пунктам России, СНГ и мира в авиационном формате (включающие направление и скорость ветра, видимость, явления погоды, количество и форму облачности, нижнюю и верхнюю границу облачности).


Погода в Зилаире - сегодня

Время (UTC), дата Ветер
(°,м/с) 
Видим.   Явления Облачность Т
(°С)
Тd
(°С)
f(%) Тe
(°С)
Pmin
(гПа)
dP
(гПа)
Po
(мм)
O2
(г/м3)
Тmin Tmax R s Состояние
почвы
03 12.10.18 350 (С) 10 км    9/8 600 м средняя 
[Cu Sc|Ac lent]
+0.8 -1.3 86 1015  1.1  714  287  +0.5        влажная 
06 12.10.18 350 (С) 4{10}  20000 м    10/10 600 м 
[Sc diur, vesp]
+2.6 -1.4 75 +1  1015.6  714  285           
09 12.10.18 330 (СЗ) 5{13}  20000 м  {ливн. осадки}  9/9 600 м кучево-дожд. 
[Cb calv]
+3.3 -2 68 +1  1015.1  -0.3  714  284           
18 12.10.18 320 (СЗ) 10 км  {ливн. осадки}  9/9 600 м кучево-дожд. 
[Cb calv]
-1 -3.4 84 -3  1017.7  -0.6  715  290           
21 12.10.18 320 (СЗ) 10 км    9/9 600 м 
[Sc]
-1.3 -3.2 87 -4  1016.8  -1  715  290           
00 13.10.18 320 (СЗ) 4000 м  слаб. ливневой снег  10/10 600 м кучево-дожд. 
[Cb cap]
-1.7 -3.2 89 -4  1016.2  -0.6  714  290           
03 13.10.18 350 (С) 6-12{12}  10 км  {ливн. осадки}  8/8 600 м кучево-дожд. 
[Cb calv]
-1.8 -7.3 66 -6  1016.9  0.6  715  291  -2.1    0.4  равномерный
мокрый или
старый снег
100% 
09 13.10.18 330 (СЗ) 5{11}  20000 м    10/10 600 м 
[Sc]
+0.4 -4.2 71 -3  1018  0.5  716  288           
12 13.10.18 330 (СЗ) 5{12}  20000 м    9/9 600 м 
[Sc]
+1.6 -5.3 60 -1  1018.2  0.5  716  287           
18 13.10.18 300 (СЗ) 10 км  {ливн. осадки}  ясно 
-1 -5.1 74 1018.7  -0.3  716  290           
21 13.10.18 220 (ЮЗ) 10 км    ясно 
-2.8 -4.8 86 -2  1018.6  -0.5  716  292           
00 14.10.18 210 (ЮЗ) 4000 м  в посл. час ливневой снег  10/10 600 м кучево-дожд. 
[Cb cap]
-2.8 -3.8 93 -2  1018.5  -0.1  716  292           
03 14.10.18 010 (С) 4000 м  дымка{ливн. осадки}  10/10 600 м 
[Sc]
-2.1 -3 94 -3  1018.1  -0.2  715  291  -3.9    0.4  <0.5  равномерный
мокрый или
старый снег
100% 
06 14.10.18 360 (С) 20000 м  {ливн. осадки}  8/8 600 м 
[Sc]
-0.8 -7 63 -3  1018.6  0.7  716  290           
09 14.10.18 010 (С) 20000 м    9/9 600 м 
[Sc]
+0.3 -7.5 56 -1  1018.3  716  289           
12 14.10.18 360 (С) 20000 м  {ливн. осадки}  10/10 600 м кучево-дожд. 
[Cb calv]
+0.4 -6.7 59 -1  1018.4  0.1  716  289           
15 14.10.18 350 (С) 10 км    ясно 
-2.2 -6.2 74 -2  1019.3  0.3  716  292    +1.2  0.0     
18 14.10.18 020 (С) 10 км    ясно 
-3.2 -6.3 79 -3  1020.6  0.9  717  293           
21 14.10.18 040 (СВ) 10 км    ясно 
-4.5 -6.5 86 -4  1021.2  0.3  717  294           
00 15.10.18 тихо ()   10 км    ясно 
-8 -9.1 92 -8  1022.2  0.1  717  299           
03 15.10.18 010 (С) 10 км    8/8 600 м 
[Sc]
-8.4 -9.5 92 -8  1022.7  0.4  718  299  -8.7        замёрзшая 
06 15.10.18 340 (С) 20000 м    10/0 средняя 
[Ac As]
-3.4 -5.4 86 -3  1022.1  0.6  718  293           
09 15.10.18 360 (С) 20000 м    10/0 средняя 
[As op]
-0.8 -7 63 -2  1021.9  0.4  718  291           
12 15.10.18 360 (С) 20000 м    10/0 средняя 
[Ac As]
-0.3 -7.6 58 -1  1022.6  0.8  719  291           
18 15.10.18 030 (СВ) 10 км    4/0 средняя 
[Ac lent]
-5.6 -8 83 -5  1026.2  0.9  720  297           
Время (UTC), дата Ветер
(°,м/с) 
Видим.   Явления Облачность Т
(°С)
Тd
(°С)
f(%) Тe
(°С)
Pmin
(гПа)
dP
(гПа)
Po
(мм)
O2
(г/м3)
Тmin Tmax R s Состояние
почвы

Для получения пояснительной информации подведите курсор к названию столбца.

ПОГОДА в Зилаире - архив

Всё, что Вы хотите узнать о погоде в Зилаире - удобно и подробно!

Выберите нужную дату (начиная с 1 января 2015* года) и нажмите кнопку "Найти".
Будут отображены архивные сводки погоды по пункту Зилаир, начиная с указанной даты.


Отображать данные в формате CSV (для использования в таблицах Excel)


Внимание! Наш архив погоды предназначен исключительно для личного некоммерческого использования в познавательных целях. Если Вам необходимы официальные справки о состоянии погоды (для производственных, юридических, коммерческих и т.п. целей), обращайтесь в органы Росгидромета.

*Примечание: данная дата относится к архиву по метеостанциям СССР (Россия, СНГ, Балтия).
Архив по метеостанциям Зарубежной Европы и Азии (кроме Китая) хранится 10 дней, по другим регионам земного шара (Китай, Африка, Америка, Австралия, Океания) - 1 день.

Зилаир - район местоположения метеостанции


Название, широта, долгота, высота метеостанции:
Зилаир 52.2°ш. 57.4°д. 521 м над ур. моря [Российская Федерация]

Дополнительная информация

В oтличие oт бoльшинства пoгoдных сайтoв мы публикуем пoдрoбную метеoинфoрмацию в детальнoм прoфессиoнальнoм фoрмате.

Характеристики температуры и влажнoсти вoздуха измеряются на высoте 2 м в тени вдали oт зданий и деревьев.
Скoрoсть ветра измеряется на высoте 10 м (на урoвне рoста челoвека скoрoсть ветра ниже в 1.5-2 раза). Если метеoстанция нахoдится в гoрoде или в лесу, тo скoрoсть ветра занижена на 2-4 м/с пo сравнению с oткрытым местoм. Скoрoсть ветра над акватoриями крупных рек и oзёр, а также на вершинах хoлмoв на 2-5 м/с выше, чем в oбычных услoвиях.
Атмoсфернoе давление в разных тoчках местнoсти мoжет значительнo oтличаться oт давления на метеoстанции, в зависимoсти oт услoвий рельефа (при пoдъёме на 10 м давление пoнижается примернo на 1 мм рт.ст.).